Flag for Canada Past Weather in Conception Bay South, Newfoundland and Labrador, Canada — Yesterday and Last 2 Weeks

Now
64 °F

Passing clouds.


Feels Like: 64 °F
Forecast: 63 / 72 °F
Wind: 15 mph from West

Location: St. John's

Current Time: Aug 26, 2016 at 2:42:32 AM

Latest Report: Aug 26, 2016 at 1:30 AM


Visibility: 15 mi

Pressure: 29.95 "Hg

Humidity: 88%

Dew Point: 61 °F

Location of Conception Bay SouthLocation

Past Weather in Conception Bay South — Graph

°F

Conception Bay South Temperature Yesterday

Maximum temperature yesterday: 75 °F (at 4:30 PM)
Minimum temperature yesterday: 61 °F (at 12:30 AM)
Average temperature yesterday: 67 °F

High & Low Weather Summary for the Past Weeks

 TemperatureHumidityPressure
High79 °F (Aug 11, 1:30 PM)100% (Aug 12, 12:32 AM)30.24 "Hg (Aug 12, 12:32 AM)
Low50 °F (Aug 14, 6:30 AM)38% (Aug 17, 3:30 PM)29.62 "Hg (Aug 13, 12:30 AM)
Average62 °F78%29.97 "Hg
* Reported Aug 11 1:30 AM — Aug 26 1:30 AM, Conception Bay South, Weather by CustomWeather, © 2016

Note: Actual official high and low records may vary slightly from our data, if they occured in-between our weather recording intervals... More about our weather records

Advertising

Conception Bay South Weather History for the Previous 24 Hours

Scroll right to see more
 ConditionsComfort  
Time TempWeatherWind HumidityBarometerVisibility
1:30 AM
Fri, Aug 26
64 °FPassing clouds.15 mph88%29.95 "Hg15 mi
12:30 AM64 °FPassing clouds.22 mph83%29.96 "Hg15 mi
11:30 PM
Thu, Aug 25
64 °FPassing clouds.22 mph83%29.96 "Hg15 mi
10:30 PM66 °FPassing clouds.22 mph73%29.96 "Hg15 mi
9:30 PM66 °FPartly cloudy.21 mph73%29.97 "Hg15 mi
8:30 PM68 °FPassing clouds.21 mph69%29.98 "Hg15 mi
7:30 PM70 °FBroken clouds.20 mph73%29.99 "Hg15 mi
6:30 PM72 °FBroken clouds.21 mph73%29.99 "Hg15 mi
5:30 PM73 °FBroken clouds.25 mph69%29.99 "Hg15 mi
4:30 PM75 °FPartly sunny.18 mph65%30.00 "Hg15 mi
3:30 PM73 °FPartly sunny.20 mph69%30.00 "Hg15 mi
2:30 PM73 °FPartly sunny.20 mph69%30.01 "Hg15 mi
1:30 PM73 °FMore clouds than sun.18 mph61%30.03 "Hg15 mi
12:30 PM72 °FCloudy.18 mph65%30.04 "Hg15 mi
11:30 AM72 °FBroken clouds.21 mph65%30.04 "Hg15 mi
10:30 AM68 °FPartly sunny.16 mph73%30.05 "Hg15 mi
9:30 AM66 °FPartly sunny.16 mph73%30.06 "Hg15 mi
8:30 AM64 °FPartly sunny.16 mph78%30.06 "Hg15 mi
7:30 AM61 °FPartly sunny.16 mph88%30.05 "Hg15 mi
6:30 AM61 °FPartly cloudy.16 mph88%30.05 "Hg15 mi
5:30 AM61 °FPartly cloudy.17 mph88%30.04 "Hg15 mi
4:30 AM61 °FPassing clouds.16 mph88%30.03 "Hg15 mi
3:30 AM61 °FPartly cloudy.15 mph88%30.03 "Hg15 mi
2:30 AM61 °FPassing clouds.14 mph88%30.04 "Hg15 mi
Weather by CustomWeather, © 2016

See weather overviewHow to use our weather pages